This demonstration page uses our WeatherBlox Daily Observations layout. Learn more.

38.89511, -77.03637

Hourly Observations for February 7, 2015

Temp ( °F °C ) Dew Point ( °F °C ) Humidity (%) Winds ( mph kmh ) Pressure ( in mb ) Visibility ( mi km ) Precip ( " mm )
12:52 am 00:52 Clear 29 -1.7 17 -8.3 61 61 Calm 30.2 1023 10 16.0934 0 0
1:52 am 01:52 Clear 29 -1.7 13 -10.6 51 51 Calm 30.19 1022 10 16.0934 0 0
2:52 am 02:52 Mostly Clear 28 -2.2 15 -9.4 58 58 SW 3 6 30.18 1022 10 16.0934 0 0
3:52 am 03:52 Mostly Cloudy 28 -2.2 17 -8.3 63 63 SW 5 7 30.18 1022 10 16.0934 0 0
4:40 am 04:40 Cloudy 28 -2 18 -8 64 64 S 3 6 30.18 1022 10 16.0934 0 0
4:52 am 04:52 Mostly Cloudy 28 -2.2 18 -7.8 66 66 Calm 30.17 1022 10 16.0934 0 0
5:52 am 05:52 Cloudy 30 -1.1 20 -6.7 66 66 Calm 30.19 1022 10 16.0934 0 0
6:52 am 06:52 Cloudy 31 -0.6 19 -7.2 61 61 Calm 30.21 1023 10 16.0934 0 0
7:52 am 07:52 Cloudy 32 0 20 -6.7 61 61 Calm 30.21 1023 10 16.0934 0 0
8:52 am 08:52 Cloudy 33 0.6 18 -7.8 54 54 Calm 30.2 1023 10 16.0934 0 0
9:52 am 09:52 Cloudy 37 2.8 16 -8.9 42 42 S 8 13 30.19 1022 10 16.0934 0 0
10:52 am 10:52 Cloudy 38 3.3 16 -8.9 41 41 S 9 15 30.16 1021 10 16.0934 0 0
11:52 am 11:52 Mostly Cloudy 43 6.1 11 -11.7 27 27 S 7 11 30.12 1020 10 16.0934 0 0
12:52 pm 12:52 Mostly Cloudy 46 7.8 13 -10.6 26 26 S 9 15 30.06 1018 10 16.0934 0 0
1:52 pm 13:52 Mostly Cloudy 48 8.9 11 -11.7 22 22 S 8 13 30.02 1017 10 16.0934 0 0
2:52 pm 14:52 Cloudy 50 10 11 -11.7 21 21 SW 7 11 30.01 1016 10 16.0934 0 0
3:52 pm 15:52 Cloudy 47 8.3 18 -7.8 31 31 S 7 11 29.99 1016 10 16.0934 0 0
4:52 pm 16:52 Cloudy 48 8.9 13 -10.6 24 24 Calm 29.98 1015 10 16.0934 0 0
5:52 pm 17:52 Cloudy 45 7.2 16 -8.9 31 31 Calm 30 1016 10 16.0934 0 0
6:52 pm 18:52 Mostly Cloudy 45 7.2 14 -10 29 29 NE 3 6 30.01 1016 10 16.0934 0 0
7:52 pm 19:52 Cloudy 41 5 22 -5.6 47 47 NE 6 9 30.01 1016 10 16.0934 0 0
8:52 pm 20:52 Cloudy 41 5 22 -5.6 47 47 N 3 6 30 1016 10 16.0934 0 0
9:52 pm 21:52 Cloudy 38 3.3 24 -4.4 57 57 ENE 6 9 29.98 1015 10 16.0934 0 0
10:52 pm 22:52 Cloudy 38 3.3 25 -3.9 60 60 NE 6 9 29.97 1015 10 16.0934 0 0
11:52 pm 23:52 Cloudy 38 3.3 24 -4.4 57 57 NE 5 7 29.95 1014 10 16.0934 0 0

Powered by AerisWeather